Location: *
(50.8512°N, 5.6907°E)
Time: 23:45:39
(UTC+00:00)

CZ-4C R/B - Pass Details

Date: 09 April 2020
Orbit: 637 x 1365 km, 63.4° (Epoch: 03 June)

Event Time Altitude Azimuth Distance (km) Brightness Sun altitude
Rises 19:00:03 0° 305° (NW) 3,528 7.4 -6.3°
Reaches altitude 10° 19:02:42 10° 315° (NW) 2,698 6.1 -6.7°
Maximum altitude 19:08:25 32° 18° (NNE) 1,758 3.9 -7.5°
Drops below altitude 10° 19:15:05 10° 80° (E) 3,160 4.7 -8.5°
Enters shadow 19:16:37 - 85° (E) 3,641 4.9 -8.7°
